Weather Roundup
Issued by NWS Chicago, IL

Current Version | Previous Version | Text Only | Print | Product List | Glossary On
Versions: 1 2 3 4 5 6 7 8 9 10 11 12 13 14 15 16 17 18 19 20 21 22 23 24 25 26 27 28 29 30 31 32 33 34 35 36 37 38 39 40 41 42 43 44 45 46 47 48 49 50
000
NZUS59 KLOT 270908
HRRLOT

CHICAGO AREA WEATHER ROUNDUP
NATIONAL WEATHER SERVICE CHICAGO/ROMEOVILLE IL
400 AM CDT THU APR 27 2017

NOTE: "FAIR" INDICATES FEW OR NO CLOUDS BELOW 12,000 FEET WITH NO
SIGNIFICANT WEATHER AND/OR OBSTRUCTIONS TO VISIBILITY.

* THESE STATIONS ARE NOT UNDER NWS QUALITY CONTROL. THEY ALSO MAY NOT
  REPORT WEATHER SUCH AS PRECIPITATION OR FOG.

ILZ005-006-012>014-019>023-271000-
NORTHEAST ILLINOIS

CITY           SKY/WX    TMP DP  RH WIND       PRES   REMARKS
OHARE          LGT RAIN  60  57  89 S16G23    29.31F
MIDWAY         LGT RAIN  61  58  90 S12G22    29.33F
AURORA         RAIN      59  57  93 S15       29.30F FOG
LANSING*       LGT RAIN  59  58  97 S17       29.35F
JOLIET*        LGT RAIN  60  58  95 S12G17    29.33F
WAUKEGAN       LGT RAIN  55  55 100 SE7       29.30F FOG
DUPAGE AIRPORT LGT RAIN  59  58  96 S18G26    29.30F
WHEELING       LGT RAIN  60  59  96 S10       29.32F
KANKAKEE*      CLOUDY    57  56  97 S15G22    29.34S
MORRIS*        RAIN      58  56  94 S9        29.32F
LEWIS AIRPORT* RAIN      58  58 100 S17G25    29.32F
NORTHERLY ISL    N/A     60  56  86 S10         N/A
$$

WIZ051-052-058>065-066-070>072-271000-
SOUTHEAST WISCONSIN

CITY           SKY/WX    TMP DP  RH WIND       PRES   REMARKS
MILWAUKEE      RAIN      55  54  96 SE7       29.32F FOG
KENOSHA*       LGT RAIN  58  56  93 S12       29.31F
RACINE*        LGT RAIN  53  51  93 S13       29.33F VSB 3/4
WAUKESHA       LGT RAIN  46  46 100 N3        29.34S
WEST BEND      RAIN      46  46 100 N5        29.33F
$$

INZ001>003-010>013-019-020-271000-
NORTHWEST INDIANA

CITY           SKY/WX    TMP DP  RH WIND       PRES   REMARKS
GARY*          LGT RAIN  61  57  86 S10G18    29.35F
MICHIGAN CITY* NOT AVBL
RENSSELAER*    NOT AVBL
VALPARAISO     CLOUDY    61  58  90 S14       29.39F
$$

LMZ740>746-271000-
SOUTHERN LAKE MICHIGAN

STATION/POSITION TIME  SKY/WX   TEMP WIND        PRES    VSBY
                                AIR  DIR/SP/G
                 (UTC)          (F)  (DEG/KT/KT) (MB)    (MI)
HARRISON CRIB    0830            58  170/ 19/ 25   N/A
BURNHAM HARBOR   0900            60  170/ 10/ 15   N/A
CALUMET HARBOR   0848            61  160/ 11/ 14  992.7F
BURNS HARBOR     0840            62  170/ 11/ 23  994.2F
MICHIGAN CITY    0840            61  150/ 13/ 18   N/A
$$

ABBREVIATIONS USED IN REMARKS
   TC - TEMPERATURE IN CELSIUS
  WCI - WIND CHILL INDEX
   HX - HEAT INDEX
  VSB - VISIBILITY
$$




USA.gov is the U.S. government's official web portal to all federal, state and local government web resources and services.